Location: Carrer del Canonge
(41.4901°N, 2.2931°E)
Time: 13:03:54
(UTC+00:00)

Cosmos 2026 Rocket - Visible Passes

Search period start: 16 January 2021 00:00
Search period end: 26 January 2021 00:00
Orbit: 939 x 1001 km, 82.9° (Epoch: 15 January)

Date Brightness Start Highest point End Pass type
(mag) Time Alt. Az. Time Alt. Az. Time Alt. Az.
16 Jan 5.0 06:13:35 10° N 06:19:44 51° ENE 06:25:54 10° SSE visible
16 Jan 5.8 18:00:43 10° ESE 18:00:50 10° ESE 18:00:50 10° ESE visible
16 Jan 5.1 19:42:22 10° SSW 19:45:30 33° SSW 19:45:30 33° SSW visible
17 Jan 6.7 04:54:21 10° NE 04:57:26 14° ENE 05:00:30 10° E visible
17 Jan 4.2 06:37:15 10° N 06:43:37 88° E 06:49:59 10° S visible
17 Jan 4.9 18:22:23 10° SE 18:26:18 26° ESE 18:26:18 26° ESE visible
17 Jan 5.1 20:06:35 10° SSW 20:10:59 38° WSW 20:10:59 38° WSW visible
18 Jan 6.2 05:16:43 10° NNE 05:21:43 24° ENE 05:26:44 10° ESE visible
18 Jan 4.1 18:45:06 10° SSE 18:50:53 48° E 18:52:06 43° ENE visible
18 Jan 5.8 20:31:30 10° SW 20:36:25 25° WNW 20:36:49 25° WNW visible
19 Jan 5.4 05:39:53 10° N 05:45:49 41° ENE 05:51:47 10° SE visible
19 Jan 5.6 17:28:35 10° E 17:30:23 11° ENE 17:32:10 10° ENE visible
19 Jan 3.8 19:08:29 10° S 19:14:34 85° E 19:18:42 22° N visible
19 Jan 6.5 20:57:32 10° W 21:00:42 14° WNW 21:03:32 11° NW visible
20 Jan 6.9 04:22:11 10° NE 04:23:19 10° ENE 04:24:28 10° ENE visible
20 Jan 4.4 06:03:26 10° N 06:09:46 70° E 06:16:07 10° SSE visible
20 Jan 5.0 17:49:15 10° SE 17:53:40 21° E 17:58:09 10° NE visible
20 Jan 4.5 19:32:28 10° SSW 19:38:24 55° W 19:44:29 10° N visible
21 Jan 6.5 04:43:19 10° NNE 04:47:42 19° ENE 04:52:05 10° ESE visible
21 Jan 4.1 06:27:15 10° NNW 06:33:34 69° W 06:39:52 10° S visible
21 Jan 4.4 18:11:35 10° SSE 18:17:08 38° E 18:22:45 10° NNE visible
21 Jan 5.5 19:57:04 10° SW 20:02:25 32° WNW 20:07:53 10° NNW visible
22 Jan 5.7 05:06:15 10° N 05:11:54 32° ENE 05:17:32 10° SE visible
22 Jan 3.8 18:34:43 10° S 18:40:45 68° E 18:46:53 10° NNE visible
22 Jan 6.3 20:22:30 10° WSW 20:26:36 18° WNW 20:30:47 10° NNW visible
23 Jan 4.7 05:29:39 10° N 05:35:54 56° E 05:42:09 10° SSE visible
23 Jan 4.2 18:58:26 10° SSW 19:04:31 71° W 19:10:43 10° N visible
24 Jan 6.7 04:10:08 10° NNE 04:13:39 15° ENE 04:17:09 10° E visible
24 Jan 4.0 05:53:22 10° N 05:59:45 86° W 06:06:08 10° S visible
24 Jan 4.7 17:38:14 10° SE 17:43:24 30° E 17:48:39 10° NNE visible
24 Jan 5.2 19:22:46 10° SW 19:28:27 40° WNW 19:34:16 10° N visible
25 Jan 6.0 04:32:42 10° NNE 04:37:55 26° ENE 04:43:08 10° SE visible
25 Jan 4.2 06:17:21 10° NNW 06:23:27 50° W 06:29:33 10° SSW visible
25 Jan 4.1 18:01:03 10° SSE 18:06:57 53° E 18:12:57 10° NNE visible
25 Jan 6.1 19:47:47 10° WSW 19:52:34 23° WNW 19:57:26 10° NNW visible
